This demonstration page uses our WeatherBlox Daily Observations layout. Learn more.

Left ArrowRight Arrow

39.29038, -76.61219

Hourly Observations for July 28, 2020

Temp ( °F °C ) Dew Point ( °F °C ) Humidity (%) Winds ( mph kmh ) Pressure ( in mb ) Visibility ( mi km ) Precip ( " mm )
12:54 am 00:54 Clear 81 27.2 70 21.1 69 69 WSW 3 6 29.81 1010 10 16 0.00 0.00
1:54 am 01:54 Clear 82 27.8 71 21.7 69 69 WSW 7 11 29.79 1009 10 16 0.00 0.00
2:54 am 02:54 Clear 81 27.2 70 21.1 69 69 WSW 6 9 29.79 1009 10 16 0.00 0.00
3:54 am 03:54 Mostly Clear 81 27.2 69 20.6 67 67 SW 5 7 29.79 1009 10 16 0.00 0.00
4:54 am 04:54 Mostly Clear 79 26.1 69 20.6 72 72 W 7 11 29.81 1009 10 16 0.00 0.00
5:54 am 05:54 Mostly Clear 79 26.1 68 20 69 69 WSW 7 11 29.82 1010 10 16 0.00 0.00
6:54 am 06:54 Partly Cloudy 80 26.7 68 20 67 67 W 7 11 29.84 1011 10 16 0.00 0.00
7:54 am 07:54 Partly Cloudy 83 28.3 69 20.6 63 63 WSW 9 15 29.86 1011 10 16 0.00 0.00
8:54 am 08:54 Partly Cloudy 87 30.6 69 20.6 55 55 W 12 19 29.86 1011 10 16 0.00 0.00
9:54 am 09:54 Partly Cloudy 88 31.1 70 21.1 55 55 WNW 12 19 29.87 1012 10 16 0.00 0.00
10:54 am 10:54 Partly Cloudy 89 31.7 70 21.1 53 53 W 12 19 29.87 1012 10 16 0.00 0.00
11:54 am 11:54 Mostly Cloudy 91 32.8 70 21.1 50 50 W 12 19 29.87 1012 10 16 0.00 0.00
12:54 pm 12:54 Mostly Cloudy 92 33.3 70 21.1 49 49 WNW 14 22 29.87 1012 10 16 0.00 0.00
1:54 pm 13:54 Mostly Cloudy 92 33.3 70 21.1 49 49 W 13 20 29.86 1011 10 16 0.00 0.00
2:54 pm 14:54 Mostly Cloudy 94 34.4 69 20.6 44 44 W 12 19 29.85 1011 10 16 0.00 0.00
3:54 pm 15:54 Mostly Cloudy 93 33.9 68 20 44 44 WNW 13 20 29.83 1010 10 16 0.00 0.00
4:54 pm 16:54 Mostly Cloudy 90 32.2 68 20 48 48 WNW 8 13 29.83 1010 10 16 0.00 0.00
5:54 pm 17:54 Mostly Cloudy 91 32.8 69 20.6 49 49 WNW 8 13 29.83 1010 10 16 0.00 0.00
6:54 pm 18:54 Mostly Cloudy 89 31.7 67 19.4 48 48 W 9 15 29.83 1010 10 16 0.00 0.00
8:54 pm 20:54 Mostly Cloudy 85 29.4 66 18.9 53 53 W 6 9 29.87 1011 10 16 0.00 0.00
9:54 pm 21:54 Cloudy 83 28.3 66 18.9 57 57 W 6 9 29.88 1012 10 16 0.00 0.00
10:54 pm 22:54 Mostly Cloudy 82 27.8 67 19.4 60 60 WSW 5 7 29.90 1013 10 16 0.00 0.00
11:54 pm 23:54 Partly Cloudy 80 26.7 68 20 67 67 WSW 5 7 29.91 1013 10 16 0.00 0.00

Powered by AerisWeather